FW0782 Weather Reports


Display with metric or nautical units.
time (UTC)temp
F
wind
direction
speed
MPH
gust
MPH
rain 1hr
in
rain 24hr
in
rain mn
in
humidity
%
barometer
mb
20190716061705 59 321 0.0 1.0 0.00 0.00 0.00 81 1020.1
20190716061204 59 321 1.0 2.0 0.00 0.00 0.00 81 1020.1
20190716061007 59 321 0.0 1.0 0.00 0.00 0.00 81 1019.7
20190716060705 59 321 0.0 1.0 0.00 0.00 0.00 82 1020.0
20190716060205 59 321 1.0 2.0 0.00 0.00 0.00 82 1019.9
20190716060008 59 320 1.0 2.0 0.00 0.00 0.00 82 1019.6
20190716055705 59 321 0.0 1.0 0.00 0.00 0.00 82 1019.9
20190716055205 59 321 1.0 2.0 0.00 0.00 0.00 82 1019.9
20190716055008 59 320 1.0 2.0 0.00 0.00 0.00 82 1019.6
20190716054704 59 321 1.0 2.0 0.00 0.00 0.00 83 1019.9
20190716054205 59 321 1.0 2.0 0.00 0.00 0.00 83 1019.9
20190716054008 59 321 0.0 1.0 0.00 0.00 0.00 82 1019.5
20190716053704 59 321 0.0 0.0 0.00 0.00 0.00 83 1019.9
20190716053205 59 321 0.0 0.0 0.00 0.00 0.00 83 1019.9
20190716053007 59 0 0.0 0.0 0.00 0.00 0.00 83 1019.6
20190716052705 59 321 0.0 0.0 0.00 0.00 0.00 83 1019.9
20190716052204 58 321 0.0 0.0 0.00 0.00 0.00 83 1019.9
20190716052008 58 0 0.0 0.0 0.00 0.00 0.00 83 1019.6
20190716051705 58 321 0.0 0.0 0.00 0.00 0.00 83 1019.9
20190716051205 58 321 0.0 1.0 0.00 0.00 0.00 83 1019.9
20190716051007 58 321 0.0 1.0 0.00 0.00 0.00 83 1019.6
20190716050705 58 321 0.0 1.0 0.00 0.00 0.00 83 1019.9
20190716050205 58 321 1.0 2.0 0.00 0.00 0.00 83 1019.9
20190716050008 58 320 0.0 2.0 0.00 0.00 0.00 83 1019.6
20190716045705 58 321 0.0 2.0 0.00 0.00 0.00 83 1019.9
20190716045205 58 321 1.0 3.0 0.00 0.00 0.00 83 1019.9
20190716045008 58 320 1.0 2.0 0.00 0.00 0.00 84 1019.5
20190716044705 58 321 3.0 5.0 0.00 0.00 0.00 84 1019.9
20190716044205 58 321 1.0 3.0 0.00 0.00 0.00 84 1019.9
20190716044008 58 320 1.0 4.0 0.00 0.00 0.00 84 1019.6
20190716043705 58 321 2.0 3.0 0.00 0.00 0.00 84 1019.9
20190716043206 58 321 1.0 2.0 0.00 0.00 0.00 84 1019.9
20190716043008 58 320 1.0 2.0 0.00 0.00 0.00 84 1019.5
20190716042705 57 321 1.0 3.0 0.00 0.00 0.00 84 1019.9
20190716042205 57 321 1.0 2.0 0.00 0.00 0.00 83 1019.9
20190716042008 57 320 1.0 3.0 0.00 0.00 0.00 83 1019.6
20190716041704 57 321 1.0 2.0 0.00 0.00 0.00 83 1019.9
20190716041204 57 321 1.0 2.0 0.00 0.00 0.00 83 1019.8
20190716041007 58 320 1.0 2.0 0.00 0.00 0.00 83 1019.5
20190716040704 58 321 2.0 3.0 0.00 0.00 0.00 82 1019.8
20190716040205 58 321 1.0 3.0 0.00 0.00 0.00 82 1019.8
20190716040008 58 320 2.0 4.0 0.00 0.00 0.00 82 1019.5
20190716035704 58 321 1.0 3.0 0.00 0.00 0.00 82 1019.8
20190716035207 58 321 2.0 3.0 0.00 0.00 0.00 82 1019.8
20190716035007 58 320 1.0 3.0 0.00 0.00 0.00 82 1019.5
20190716034705 58 321 1.0 2.0 0.00 0.00 0.00 82 1019.8
20190716034205 58 321 1.0 3.0 0.00 0.00 0.00 82 1019.7
20190716034007 58 320 2.0 4.0 0.00 0.00 0.00 82 1019.4
20190716033704 58 321 2.0 5.0 0.00 0.00 0.00 82 1019.7
20190716033205 58 321 1.0 3.0 0.00 0.00 0.00 82 1019.7
20190716033007 58 321 2.0 4.0 0.00 0.00 0.00 82 1019.4
20190716032704 58 321 2.0 5.0 0.00 0.00 0.00 82 1019.7
20190716032204 59 321 1.0 3.0 0.00 0.00 0.00 82 1019.7
20190716032008 59 320 1.0 2.0 0.00 0.00 0.00 82 1019.4
20190716031705 59 321 0.0 2.0 0.00 0.00 0.00 82 1019.8
20190716031205 59 321 1.0 3.0 0.00 0.00 0.00 82 1019.8
20190716031007 59 320 1.0 3.0 0.00 0.00 0.00 82 1019.5
20190716030705 59 321 1.0 2.0 0.00 0.00 0.00 81 1019.9
20190716030205 59 321 0.0 2.0 0.00 0.00 0.00 81 1019.8
20190716030008 59 0 0.0 0.0 0.00 0.00 0.00 81 1019.5
20190716025705 59 321 1.0 2.0 0.00 0.00 0.00 81 1019.9
20190716025205 59 321 1.0 2.0 0.00 0.00 0.00 81 1019.8
20190716025007 59 320 1.0 2.0 0.00 0.00 0.00 81 1019.5
20190716024705 59 321 1.0 2.0 0.00 0.00 0.00 80 1019.8
20190716024205 59 321 1.0 3.0 0.00 0.00 0.00 80 1019.8
20190716024006 59 320 1.0 3.0 0.00 0.00 0.00 80 1019.5
20190716023704 59 321 2.0 3.0 0.00 0.00 0.00 80 1019.8
20190716023205 59 321 2.0 3.0 0.00 0.00 0.00 80 1019.8
20190716023007 59 321 2.0 4.0 0.00 0.00 0.00 80 1019.5
20190716022705 59 321 1.0 5.0 0.00 0.00 0.00 80 1019.8
20190716022205 59 321 2.0 5.0 0.00 0.00 0.00 81 1019.8
20190716022008 58 320 1.0 2.0 0.00 0.00 0.00 81 1019.5
20190716021705 58 321 1.0 3.0 0.00 0.00 0.00 81 1019.8
20190716021205 58 321 2.0 3.0 0.00 0.00 0.00 81 1019.8
20190716021007 58 320 2.0 4.0 0.00 0.00 0.00 81 1019.5
20190716020704 58 321 2.0 5.0 0.00 0.00 0.00 81 1019.8
20190716020204 58 321 2.0 5.0 0.00 0.00 0.00 82 1019.9
20190716020008 58 320 2.0 5.0 0.00 0.00 0.00 82 1019.6
20190716015704 59 321 2.0 6.0 0.00 0.00 0.00 83 1019.9
20190716015205 59 321 2.0 3.0 0.00 0.00 0.00 83 1020.0
20190716015007 59 320 2.0 4.0 0.00 0.00 0.00 83 1019.7
20190716014705 59 321 1.0 2.0 0.00 0.00 0.00 83 1020.0
20190716014205 59 321 1.0 2.0 0.00 0.00 0.00 83 1020.1
20190716014006 59 320 1.0 2.0 0.00 0.00 0.00 83 1019.8
20190716013705 59 321 1.0 2.0 0.00 0.00 0.00 83 1020.1
20190716013205 59 321 1.0 2.0 0.00 0.00 0.00 84 1020.1
20190716013007 59 320 0.0 2.0 0.00 0.00 0.00 84 1019.9
20190716012704 59 321 1.0 2.0 0.00 0.00 0.00 84 1020.2
20190716012205 59 321 1.0 2.0 0.00 0.00 0.00 84 1020.2
20190716012007 59 320 1.0 2.0 0.00 0.00 0.00 84 1019.9
20190716011705 59 321 0.0 2.0 0.00 0.00 0.00 84 1020.2
20190716011205 59 321 1.0 2.0 0.00 0.00 0.00 84 1020.2
20190716011008 59 320 1.0 2.0 0.00 0.00 0.00 84 1019.9
20190716010705 59 321 1.0 2.0 0.00 0.00 0.00 84 1020.3
20190716010205 59 321 0.0 1.0 0.00 0.00 0.00 84 1020.3
20190716010008 59 321 0.0 1.0 0.00 0.00 0.00 84 1020.1
20190716005704 59 321 0.0 1.0 0.00 0.00 0.00 84 1020.3
20190716005205 59 321 0.0 0.0 0.00 0.00 0.00 83 1020.3
20190716005008 59 0 0.0 0.0 0.00 0.00 0.00 83 1020.1
20190716004704 59 321 0.0 0.0 0.00 0.00 0.00 82 1020.4
20190716004204 59 321 0.0 0.0 0.00 0.00 0.00 82 1020.4
20190716004008 59 0 0.0 0.0 0.00 0.00 0.00 82 1020.1
20190716003705 59 321 0.0 2.0 0.00 0.00 0.00 82 1020.4
20190716003204 59 321 1.0 2.0 0.00 0.00 0.00 81 1020.4
20190716003007 59 320 0.0 1.0 0.00 0.00 0.00 81 1020.1
20190716002705 59 321 1.0 3.0 0.00 0.00 0.00 81 1020.5
20190716002204 59 321 1.0 2.0 0.00 0.00 0.00 81 1020.4
20190716002008 59 320 1.0 2.0 0.00 0.00 0.00 81 1020.2
20190716001704 59 321 1.0 3.0 0.00 0.00 0.00 81 1020.5
20190716001204 59 321 0.0 1.0 0.00 0.00 0.00 81 1020.5
20190716001007 59 321 0.0 1.0 0.00 0.00 0.00 81 1020.2
20190716000705 59 321 1.0 3.0 0.00 0.00 0.00 81 1020.6
20190716000205 59 321 3.0 5.0 0.00 0.00 0.00 81 1020.7
20190716000008 59 320 2.0 5.0 0.00 0.00 0.00 81 1020.3
20190715235704 59 321 1.0 3.0 0.00 0.00 0.00 82 1020.6
20190715235204 59 321 3.0 5.0 0.00 0.00 0.00 82 1020.7
20190715235007 59 320 2.0 4.0 0.00 0.00 0.00 82 1020.4
20190715234704 59 321 1.0 2.0 0.00 0.00 0.00 82 1020.6
20190715234205 59 321 1.0 3.0 0.00 0.00 0.00 81 1020.7
20190715234007 59 320 1.0 3.0 0.00 0.00 0.00 81 1020.4
20190715233704 59 321 1.0 3.0 0.00 0.00 0.00 81 1020.7
20190715233205 59 321 1.0 3.0 0.00 0.00 0.00 81 1020.6
20190715233007 59 320 1.0 2.0 0.00 0.00 0.00 81 1020.4
20190715232705 59 321 1.0 2.0 0.00 0.00 0.00 80 1020.6
20190715232204 59 321 1.0 3.0 0.00 0.00 0.00 80 1020.6
20190715232007 59 321 2.0 4.0 0.00 0.00 0.00 80 1020.3
20190715231704 59 321 2.0 3.0 0.00 0.00 0.00 80 1020.7
20190715231205 59 321 1.0 3.0 0.00 0.00 0.00 80 1020.7
20190715231007 59 320 1.0 4.0 0.00 0.00 0.00 80 1020.4
20190715230704 59 321 1.0 3.0 0.00 0.00 0.00 79 1020.6
20190715230205 59 321 1.0 3.0 0.00 0.00 0.00 79 1020.6
20190715230007 59 320 2.0 4.0 0.00 0.00 0.00 79 1020.4
20190715225705 59 321 2.0 5.0 0.00 0.00 0.00 79 1020.7
20190715225205 59 321 1.0 3.0 0.00 0.00 0.00 79 1020.7
20190715225007 59 320 1.0 3.0 0.00 0.00 0.00 79 1020.5
20190715224705 59 321 1.0 2.0 0.00 0.00 0.00 80 1020.8
20190715224204 59 321 1.0 3.0 0.00 0.00 0.00 79 1020.8
20190715224007 59 320 2.0 4.0 0.00 0.00 0.00 79 1020.5
20190715223705 59 321 2.0 3.0 0.00 0.00 0.00 79 1020.7
20190715223205 59 321 1.0 3.0 0.00 0.00 0.00 79 1020.7
20190715223008 59 320 1.0 2.0 0.00 0.00 0.00 79 1020.4
20190715222705 59 321 2.0 5.0 0.00 0.00 0.00 79 1020.8
20190715222205 59 321 3.0 6.0 0.00 0.00 0.00 79 1020.8
20190715222007 59 321 3.0 6.0 0.00 0.00 0.00 79 1020.5
20190715221708 59 321 3.0 5.0 0.00 0.00 0.00 79 1020.8
20190715221214 59 321 1.0 5.0 0.00 0.00 0.00 79 1020.8
20190715221007 60 320 1.0 2.0 0.00 0.00 0.00 79 1020.5
20190715220708 60 321 2.0 5.0 0.00 0.00 0.00 79 1020.8
20190715220219 60 321 2.0 3.0 0.00 0.00 0.00 79 1020.8
20190715220010 60 321 2.0 4.0 0.00 0.00 0.00 79 1020.5
20190715215705 60 321 1.0 3.0 0.00 0.00 0.00 79 1020.8
20190715215205 60 321 1.0 3.0 0.00 0.00 0.00 79 1020.8
20190715215007 60 320 1.0 3.0 0.00 0.00 0.00 78 1020.6
20190715214704 60 321 1.0 3.0 0.00 0.00 0.00 79 1020.8
20190715214205 60 321 2.0 5.0 0.00 0.00 0.00 79 1020.8
20190715214008 60 320 3.0 5.0 0.00 0.00 0.00 79 1020.5
20190715213705 60 321 2.0 3.0 0.00 0.00 0.00 78 1020.8
20190715213205 60 321 2.0 5.0 0.00 0.00 0.00 78 1020.8
20190715213008 60 321 3.0 5.0 0.00 0.00 0.00 78 1020.5
20190715212705 60 321 3.0 5.0 0.00 0.00 0.00 78 1020.8
20190715212205 60 327 2.0 6.0 0.00 0.00 0.00 78 1020.8
20190715212007 60 327 2.0 4.0 0.00 0.00 0.00 78 1020.5
20190715211705 60 327 2.0 6.0 0.00 0.00 0.00 77 1020.8
20190715211205 60 328 5.0 9.0 0.00 0.00 0.00 78 1020.8
20190715211007 60 317 4.0 7.0 0.00 0.00 0.00 78 1020.5
20190715210704 60 338 3.0 7.0 0.00 0.00 0.00 78 1020.9
20190715210205 60 0 3.0 7.0 0.00 0.00 0.00 78 1020.9
20190715210007 60 4 2.0 7.0 0.00 0.00 0.00 78 1020.6
20190715205705 60 5 3.0 5.0 0.00 0.00 0.00 78 1020.9
20190715205205 60 5 2.0 7.0 0.00 0.00 0.00 78 1020.8
20190715205008 60 6 2.0 6.0 0.00 0.00 0.00 78 1020.5
20190715204705 60 339 3.0 7.0 0.00 0.00 0.00 78 1020.8
20190715204204 60 338 1.0 3.0 0.00 0.00 0.00 78 1020.8
20190715204008 60 338 1.0 4.0 0.00 0.00 0.00 78 1020.6
20190715203704 60 338 2.0 5.0 0.00 0.00 0.00 79 1020.9
20190715203205 60 338 3.0 5.0 0.00 0.00 0.00 79 1020.9
20190715203008 60 339 3.0 5.0 0.00 0.00 0.00 79 1020.6
20190715202704 60 340 2.0 5.0 0.00 0.00 0.00 79 1020.8
20190715202205 60 342 3.0 6.0 0.00 0.00 0.00 79 1020.9
20190715202008 60 352 2.0 6.0 0.00 0.00 0.00 79 1020.6
20190715201705 60 355 3.0 6.0 0.00 0.00 0.00 79 1020.8
20190715201205 60 0 2.0 6.0 0.00 0.00 0.00 79 1020.9
20190715201007 60 1 3.0 6.0 0.00 0.00 0.00 79 1020.5
20190715200705 60 0 2.0 7.0 0.00 0.00 0.00 79 1020.9
20190715200204 60 14 2.0 5.0 0.00 0.00 0.00 79 1020.9
20190715200009 60 14 3.0 5.0 0.00 0.00 0.00 79 1020.6
20190715195705 60 14 1.0 2.0 0.00 0.00 0.00 78 1020.9
20190715195205 60 14 1.0 5.0 0.00 0.00 0.00 78 1020.8
20190715195008 60 15 2.0 5.0 0.00 0.00 0.00 78 1020.5
20190715194705 60 14 2.0 5.0 0.00 0.00 0.00 77 1020.8
20190715194205 60 14 3.0 5.0 0.00 0.00 0.00 77 1020.8
20190715194008 60 15 2.0 4.0 0.00 0.00 0.00 77 1020.5
20190715193705 60 14 2.0 3.0 0.00 0.00 0.00 77 1020.8
20190715193204 60 14 2.0 6.0 0.00 0.00 0.00 78 1020.8
20190715193008 60 359 3.0 6.0 0.00 0.00 0.00 78 1020.5
20190715192705 60 340 4.0 10.0 0.00 0.00 0.00 78 1020.8
20190715192205 60 339 4.0 8.0 0.00 0.00 0.00 79 1020.7
20190715192007 60 324 3.0 8.0 0.00 0.00 0.00 79 1020.4
20190715191704 60 318 2.0 6.0 0.00 0.00 0.00 80 1020.8
20190715191205 61 318 2.0 6.0 0.00 0.00 0.00 81 1020.7
20190715191008 60 317 1.0 4.0 0.00 0.00 0.00 81 1020.4
20190715190705 61 318 3.0 6.0 0.00 0.00 0.00 81 1020.7
20190715190204 61 318 2.0 6.0 0.00 0.00 0.00 81 1020.7
20190715190009 61 317 3.0 6.0 0.00 0.00 0.00 81 1020.4
20190715185705 61 353 2.0 6.0 0.00 0.00 0.00 81 1020.7
20190715185204 61 0 3.0 6.0 0.00 0.00 0.00 81 1020.7
20190715185007 61 1 3.0 6.0 0.00 0.00 0.00 81 1020.5
20190715184704 61 2 2.0 6.0 0.00 0.00 0.00 81 1020.7
20190715184205 61 343 2.0 6.0 0.00 0.00 0.00 81 1020.7
20190715184009 61 345 4.0 6.0 0.00 0.00 0.00 81 1020.4
20190715183705 61 339 4.0 9.0 0.00 0.00 0.00 81 1020.7
20190715183206 61 328 3.0 8.0 0.00 0.00 0.00 81 1020.7
20190715183007 61 9 3.0 6.0 0.00 0.00 0.00 81 1020.4
20190715182704 61 5 3.0 7.0 0.00 0.00 0.00 81 1020.7
20190715182204 61 338 5.0 8.0 0.00 0.00 0.00 80 1020.7
20190715182007 61 345 5.0 8.0 0.00 0.00 0.00 80 1020.5
20190715181705 61 331 5.0 9.0 0.00 0.00 0.00 80 1020.7
20190715181204 62 331 4.0 7.0 0.00 0.00 0.00 80 1020.7
20190715181007 62 345 5.0 7.0 0.00 0.00 0.00 80 1020.5
20190715180715 62 358 3.0 7.0 0.00 0.00 0.00 80 1020.7
20190715180204 62 358 4.0 8.0 0.00 0.00 0.00 80 1020.8
20190715180007 62 326 3.0 6.0 0.00 0.00 0.00 80 1020.5
20190715175704 62 311 6.0 12.0 0.00 0.00 0.00 80 1020.8
20190715175204 62 317 5.0 10.0 0.00 0.00 0.00 80 1020.8
20190715175008 62 333 4.0 7.0 0.00 0.00 0.00 80 1020.5
20190715174704 62 323 5.0 7.0 0.00 0.00 0.00 80 1020.8
20190715174205 62 327 5.0 9.0 0.00 0.00 0.00 78 1020.8
20190715174008 62 334 4.0 7.0 0.00 0.00 0.00 78 1020.5
20190715173705 62 346 3.0 5.0 0.00 0.00 0.00 78 1020.8
20190715173204 62 345 3.0 7.0 0.00 0.00 0.00 78 1020.8
20190715173007 62 346 4.0 6.0 0.00 0.00 0.00 78 1020.5
20190715172705 62 340 5.0 9.0 0.00 0.00 0.00 78 1020.8
20190715172206 62 321 4.0 7.0 0.00 0.00 0.00 78 1020.8
20190715172008 62 337 5.0 7.0 0.00 0.00 0.00 78 1020.6
20190715171705 62 332 5.0 10.0 0.00 0.00 0.00 79 1020.9
20190715171204 62 319 5.0 9.0 0.00 0.00 0.00 79 1020.9
20190715171008 62 319 5.0 9.0 0.00 0.00 0.00 79 1020.6
20190715170704 62 347 5.0 9.0 0.00 0.00 0.00 78 1021.0
20190715170204 62 337 6.0 9.0 0.00 0.00 0.00 78 1021.0
20190715170008 62 336 5.0 9.0 0.00 0.00 0.00 78 1020.7
20190715165704 62 338 5.0 9.0 0.00 0.00 0.00 78 1021.0
20190715165205 62 338 6.0 12.0 0.00 0.00 0.00 79 1020.9
20190715165008 62 335 6.0 11.0 0.00 0.00 0.00 79 1020.6
20190715164704 62 323 5.0 9.0 0.00 0.00 0.00 79 1021.0
20190715164204 62 338 5.0 12.0 0.00 0.00 0.00 78 1021.0
20190715164008 62 355 5.0 10.0 0.00 0.00 0.00 78 1020.8
20190715163704 62 351 7.0 12.0 0.00 0.00 0.00 77 1021.1
20190715163204 62 336 3.0 12.0 0.00 0.00 0.00 77 1021.1
20190715163007 62 16 3.0 6.0 0.00 0.00 0.00 77 1020.8
20190715162704 62 342 5.0 8.0 0.00 0.00 0.00 77 1021.0
20190715162204 62 351 3.0 7.0 0.00 0.00 0.00 77 1021.0
20190715162006 62 339 4.0 7.0 0.00 0.00 0.00 77 1020.8
20190715161705 62 1 3.0 8.0 0.00 0.00 0.00 77 1021.1
20190715161205 62 351 5.0 9.0 0.00 0.00 0.00 77 1021.1
20190715161007 62 25 5.0 9.0 0.00 0.00 0.00 76 1020.8
20190715160705 62 30 4.0 7.0 0.00 0.00 0.00 76 1021.1
20190715160205 62 353 5.0 9.0 0.00 0.00 0.00 77 1021.2
20190715160007 62 332 5.0 9.0 0.00 0.00 0.00 77 1020.9
20190715155705 62 321 6.0 10.0 0.00 0.00 0.00 77 1021.2
20190715155204 62 17 5.0 12.0 0.00 0.00 0.00 76 1021.2
20190715155007 62 11 5.0 7.0 0.00 0.00 0.00 76 1020.9
20190715154704 63 352 5.0 12.0 0.00 0.00 0.00 77 1021.3
20190715154204 62 4 3.0 8.0 0.00 0.00 0.00 78 1021.3
20190715154008 62 9 5.0 8.0 0.00 0.00 0.00 78 1021.1
20190715153704 62 21 3.0 7.0 0.00 0.00 0.00 78 1021.4
20190715153208 62 19 4.0 8.0 0.00 0.00 0.00 78 1021.4
20190715153007 62 24 5.0 8.0 0.00 0.00 0.00 78 1021.1
20190715152704 62 12 5.0 12.0 0.00 0.00 0.00 78 1021.4
20190715152205 62 354 5.0 9.0 0.00 0.00 0.00 79 1021.4
20190715152007 62 337 5.0 9.0 0.00 0.00 0.00 79 1021.1
20190715151704 62 334 6.0 12.0 0.00 0.00 0.00 79 1021.4
20190715151204 62 348 7.0 13.0 0.00 0.00 0.00 79 1021.4
20190715151007 62 355 5.0 13.0 0.00 0.00 0.00 79 1021.1
20190715150704 62 36 5.0 7.0 0.00 0.00 0.00 79 1021.4
20190715150205 62 348 6.0 12.0 0.00 0.00 0.00 81 1021.5
20190715150007 62 332 7.0 12.0 0.00 0.00 0.00 81 1021.2
20190715145704 62 343 5.0 9.0 0.00 0.00 0.00 80 1021.5
20190715145205 62 331 6.0 10.0 0.00 0.00 0.00 80 1021.5
20190715145008 62 325 5.0 9.0 0.00 0.00 0.00 80 1021.2
20190715144705 62 319 6.0 9.0 0.00 0.00 0.00 81 1021.6
20190715144205 62 0 4.0 7.0 0.00 0.00 0.00 80 1021.5
20190715144007 62 23 4.0 7.0 0.00 0.00 0.00 80 1021.2
20190715143704 62 316 6.0 10.0 0.00 0.00 0.00 80 1021.5
20190715143205 62 342 5.0 12.0 0.00 0.00 0.00 79 1021.6
20190715143009 62 350 6.0 11.0 0.00 0.00 0.00 79 1021.2
20190715142705 62 15 5.0 9.0 0.00 0.00 0.00 78 1021.5
20190715142205 62 342 5.0 10.0 0.00 0.00 0.00 77 1021.4
20190715142008 62 22 5.0 10.0 0.00 0.00 0.00 77 1021.1
20190715141705 62 6 5.0 9.0 0.00 0.00 0.00 79 1021.4
20190715141205 62 331 5.0 10.0 0.00 0.00 0.00 78 1021.3
20190715141008 62 352 5.0 10.0 0.00 0.00 0.00 79 1021.0
20190715140705 62 4 5.0 13.0 0.00 0.00 0.00 78 1021.4
20190715140205 62 3 6.0 12.0 0.00 0.00 0.00 78 1021.4
20190715140008 62 338 6.0 12.0 0.00 0.00 0.00 78 1021.1
20190715135705 62 337 6.0 9.0 0.00 0.00 0.00 78 1021.4
20190715135204 62 350 4.0 10.0 0.00 0.00 0.00 78 1021.4
20190715135007 62 350 5.0 10.0 0.00 0.00 0.00 78 1021.2
20190715134705 61 328 6.0 9.0 0.00 0.00 0.00 79 1021.5
20190715134205 61 329 6.0 12.0 0.00 0.00 0.00 79 1021.5
20190715134008 61 331 7.0 11.0 0.00 0.00 0.00 79 1021.2
20190715133704 62 316 7.0 12.0 0.00 0.00 0.00 80 1021.6
20190715133204 62 322 6.0 12.0 0.00 0.00 0.00 78 1021.6
20190715133009 62 2 5.0 8.0 0.00 0.00 0.00 77 1021.3
20190715132705 63 349 6.0 10.0 0.00 0.00 0.00 77 1021.5
20190715132204 63 23 6.0 10.0 0.00 0.00 0.00 77 1021.4
20190715132007 63 336 6.0 10.0 0.00 0.00 0.00 77 1021.1
20190715131705 63 321 6.0 10.0 0.00 0.00 0.00 75 1021.4
20190715131205 63 19 5.0 10.0 0.00 0.00 0.00 74 1021.4
20190715131008 63 346 5.0 9.0 0.00 0.00 0.00 75 1021.1
20190715130705 63 319 5.0 12.0 0.00 0.00 0.00 74 1021.5
20190715130206 64 322 7.0 12.0 0.00 0.00 0.00 76 1021.5
20190715130009 63 323 5.0 11.0 0.00 0.00 0.00 75 1021.2
20190715125704 63 341 6.0 9.0 0.00 0.00 0.00 74 1021.4
20190715125205 63 5 5.0 12.0 0.00 0.00 0.00 73 1021.4
20190715125007 63 351 6.0 11.0 0.00 0.00 0.00 73 1021.1
20190715124705 63 35 5.0 10.0 0.00 0.00 0.00 72 1021.5
20190715124205 64 345 5.0 9.0 0.00 0.00 0.00 73 1021.4
20190715124007 64 342 5.0 9.0 0.00 0.00 0.00 73 1021.1
20190715123705 64 328 5.0 10.0 0.00 0.00 0.00 72 1021.4
20190715123204 64 351 3.0 10.0 0.00 0.00 0.00 70 1021.4
20190715123008 65 29 5.0 9.0 0.00 0.00 0.00 70 1021.1
20190715122705 65 43 5.0 10.0 0.00 0.00 0.00 69 1021.4
20190715122204 65 2 5.0 10.0 0.00 0.00 0.00 69 1021.4
20190715122008 65 330 4.0 7.0 0.00 0.00 0.00 69 1021.1
20190715121704 64 353 5.0 8.0 0.00 0.00 0.00 70 1021.4
20190715121205 64 357 5.0 12.0 0.00 0.00 0.00 70 1021.4
20190715121007 64 355 6.0 9.0 0.00 0.00 0.00 68 1021.1
20190715120705 64 342 5.0 12.0 0.00 0.00 0.00 67 1021.4
20190715120204 64 345 6.0 9.0 0.00 0.00 0.00 68 1021.3
20190715120009 64 34 6.0 9.0 0.00 0.00 0.00 68 1021.0
20190715115705 64 345 7.0 12.0 0.00 0.00 0.00 68 1021.3
20190715115205 64 53 6.0 12.0 0.00 0.00 0.00 69 1021.3
20190715115007 64 355 6.0 11.0 0.00 0.00 0.00 68 1021.0
20190715114705 64 329 6.0 12.0 0.00 0.00 0.00 69 1021.3
20190715114206 64 326 4.0 10.0 0.00 0.00 0.00 73 1021.4
20190715114008 64 5 3.0 8.0 0.00 0.00 0.00 72 1021.1
20190715113705 63 2 5.0 9.0 0.00 0.00 0.00 69 1021.4
20190715113205 64 324 6.0 12.0 0.00 0.00 0.00 70 1021.4
20190715113009 64 332 6.0 11.0 0.00 0.00 0.00 70 1021.0
20190715112705 64 339 6.0 10.0 0.00 0.00 0.00 71 1021.4
20190715112205 63 321 5.0 7.0 0.00 0.00 0.00 72 1021.4
20190715112007 63 322 4.0 7.0 0.00 0.00 0.00 74 1021.1
20190715111705 63 350 6.0 8.0 0.00 0.00 0.00 73 1021.4
20190715111204 63 32 4.0 12.0 0.00 0.00 0.00 72 1021.4
20190715111008 64 337 6.0 11.0 0.00 0.00 0.00 73 1021.1
20190715110705 63 318 6.0 12.0 0.00 0.00 0.00 70 1021.4
20190715110205 64 345 6.0 12.0 0.00 0.00 0.00 72 1021.4
20190715110009 64 356 7.0 12.0 0.00 0.00 0.00 71 1021.1
20190715105704 64 340 5.0 9.0 0.00 0.00 0.00 72 1021.4
20190715105204 63 345 6.0 12.0 0.00 0.00 0.00 71 1021.4
20190715105007 63 352 6.0 10.0 0.00 0.00 0.00 72 1021.1
20190715104704 63 354 6.0 9.0 0.00 0.00 0.00 71 1021.4
20190715104204 63 317 5.0 8.0 0.00 0.00 0.00 72 1021.4
20190715104008 63 12 5.0 8.0 0.00 0.00 0.00 71 1021.1
20190715103705 63 38 5.0 9.0 0.00 0.00 0.00 72 1021.4
20190715103205 63 28 5.0 9.0 0.00 0.00 0.00 72 1021.4
20190715103007 63 327 5.0 9.0 0.00 0.00 0.00 72 1021.1
20190715102708 63 328 4.0 7.0 0.00 0.00 0.00 73 1021.3
20190715102205 63 333 5.0 12.0 0.00 0.00 0.00 73 1021.3
20190715102008 62 336 5.0 11.0 0.00 0.00 0.00 74 1021.0
20190715101704 62 350 3.0 7.0 0.00 0.00 0.00 73 1021.3
20190715101204 62 327 6.0 7.0 0.00 0.00 0.00 74 1021.3
20190715101009 62 344 4.0 7.0 0.00 0.00 0.00 73 1021.0
20190715100704 62 353 6.0 10.0 0.00 0.00 0.00 73 1021.3
20190715100205 62 344 6.0 10.0 0.00 0.00 0.00 74 1021.2
20190715100008 62 339 6.0 10.0 0.00 0.00 0.00 74 1021.0
20190715095704 62 331 5.0 8.0 0.00 0.00 0.00 74 1021.3
20190715095204 62 347 5.0 12.0 0.00 0.00 0.00 73 1021.3
20190715095008 62 5 6.0 12.0 0.00 0.00 0.00 74 1021.0
20190715094704 62 4 6.0 9.0 0.00 0.00 0.00 73 1021.2
20190715094204 62 4 5.0 9.0 0.00 0.00 0.00 72 1021.2
20190715094008 62 22 5.0 9.0 0.00 0.00 0.00 72 1021.0
20190715093704 63 334 6.0 12.0 0.00 0.00 0.00 72 1021.2
20190715093205 63 335 5.0 10.0 0.00 0.00 0.00 73 1021.2
20190715093007 62 2 5.0 10.0 0.00 0.00 0.00 74 1020.9
20190715092705 62 18 5.0 10.0 0.00 0.00 0.00 75 1021.2
20190715092205 62 40 5.0 9.0 0.00 0.00 0.00 73 1021.2
20190715092008 62 8 5.0 9.0 0.00 0.00 0.00 75 1020.9
20190715091704 61 19 5.0 9.0 0.00 0.00 0.00 75 1021.3
20190715091204 61 19 5.0 8.0 0.00 0.00 0.00 76 1021.3
20190715091008 61 15 5.0 7.0 0.00 0.00 0.00 76 1021.0
20190715090704 61 0 7.0 12.0 0.00 0.00 0.00 77 1021.3
20190715090204 61 357 6.0 10.0 0.00 0.00 0.00 78 1021.3
20190715090008 60 349 4.0 9.0 0.00 0.00 0.00 78 1020.9
20190715085705 60 342 5.0 7.0 0.00 0.00 0.00 79 1021.4
20190715085204 60 348 5.0 8.0 0.00 0.00 0.00 79 1021.4
20190715085008 60 353 5.0 8.0 0.00 0.00 0.00 80 1021.1
20190715084704 60 355 5.0 9.0 0.00 0.00 0.00 80 1021.4
20190715084205 60 35 3.0 6.0 0.00 0.00 0.00 81 1021.4
20190715084008 60 11 3.0 5.0 0.00 0.00 0.00 81 1021.2
20190715083704 60 345 5.0 9.0 0.00 0.00 0.00 81 1021.5
20190715083205 59 348 3.0 6.0 0.00 0.00 0.00 81 1021.5
20190715083008 59 359 3.0 6.0 0.00 0.00 0.00 81 1021.2
20190715082704 59 19 2.0 7.0 0.00 0.00 0.00 81 1021.5
20190715082204 59 350 4.0 7.0 0.00 0.00 0.00 81 1021.5
20190715082007 59 55 2.0 4.0 0.00 0.00 0.00 82 1021.2
20190715081704 59 54 4.0 6.0 0.00 0.00 0.00 82 1021.4
20190715081205 59 53 2.0 5.0 0.00 0.00 0.00 83 1021.4
20190715081007 59 54 3.0 5.0 0.00 0.00 0.00 83 1021.1
20190715080704 59 54 5.0 7.0 0.00 0.00 0.00 83 1021.5
20190715080204 59 42 3.0 7.0 0.00 0.00 0.00 84 1021.5
20190715080008 58 47 2.0 5.0 0.00 0.00 0.00 85 1021.2
20190715075704 58 51 1.0 3.0 0.00 0.00 0.00 85 1021.4
20190715075205 58 51 3.0 6.0 0.00 0.00 0.00 86 1021.4
20190715075007 58 49 4.0 6.0 0.00 0.00 0.00 86 1021.1
20190715074705 58 48 4.0 6.0 0.00 0.00 0.00 86 1021.4
20190715074205 58 337 3.0 7.0 0.00 0.00 0.00 87 1021.4
20190715074007 58 5 4.0 7.0 0.00 0.00 0.00 87 1021.1
20190715073704 58 50 3.0 5.0 0.00 0.00 0.00 88 1021.4
20190715073205 58 358 2.0 6.0 0.00 0.00 0.00 88 1021.3
20190715073009 58 41 1.0 4.0 0.00 0.00 0.00 88 1021.0
20190715072704 58 45 3.0 5.0 0.00 0.00 0.00 88 1021.2
20190715072204 58 48 2.0 6.0 0.00 0.00 0.00 88 1021.2
20190715072007 58 53 3.0 6.0 0.00 0.00 0.00 88 1020.9
20190715071704 58 54 3.0 6.0 0.00 0.00 0.00 89 1021.2
20190715071204 58 56 3.0 7.0 0.00 0.00 0.00 89 1021.2
20190715071007 58 51 5.0 7.0 0.00 0.00 0.00 89 1020.9
20190715070704 58 55 3.0 7.0 0.00 0.00 0.00 89 1021.2
20190715070205 58 57 5.0 7.0 0.00 0.00 0.00 89 1021.1
20190715070008 58 55 5.0 7.0 0.00 0.00 0.00 89 1020.9
20190715065704 58 64 6.0 10.0 0.00 0.00 0.00 88 1021.1
20190715065204 58 50 5.0 6.0 0.00 0.00 0.00 88 1021.1
20190715065008 58 58 5.0 6.0 0.00 0.00 0.00 88 1020.8
20190715064704 58 49 4.0 7.0 0.00 0.00 0.00 87 1021.1
20190715064205 58 13 5.0 8.0 0.00 0.00 0.00 87 1021.1
20190715064008 58 340 4.0 8.0 0.00 0.00 0.00 87 1020.8
20190715063705 59 14 3.0 7.0 0.00 0.00 0.00 87 1021.1
20190715063204 59 356 3.0 7.0 0.00 0.00 0.00 87 1021.0
20190715063008 59 341 3.0 7.0 0.00 0.00 0.00 86 1020.7
20190715062704 59 349 6.0 9.0 0.00 0.00 0.00 86 1021.0
20190715062205 59 330 5.0 9.0 0.00 0.00 0.00 86 1020.9
20190715062008 59 326 4.0 7.0 0.00 0.00 0.00 86 1020.6